Location: Kikino
(54.4440°N, 112.0940°W)
Time: 11:15:54
(UTC+00:00)

AO-27 - Pass Details

Date: 03 December 2023
Orbit: 783 x 797 km, 98.8° (Epoch: 22 February)

Event Time Altitude Azimuth Distance (km) Brightness Sun altitude
Exits shadow 03:47:47 12° 338° (NNW) 2,212 10.3 -39.3°
Drops below altitude 10° 03:48:13 10° 339° (NNW) 2,379 10.5 -39.3°
Sets 03:50:36 0° 343° (NNW) 3,315 11.3 -39.7°
